Regional Weather Roundup
Issued by NWS Glasgow, MT

Home | Current Version | Previous Version | Text Only | Print | Product List | Glossary On
Versions: 1 2 3 4 5 6 7 8 9 10 11 12 13 14 15 16 17 18 19 20 21 22 23 24 25 26 27 28 29 30 31 32 33 34 35 36 37 38 39 40 41 42 43 44 45 46 47 48 49 50
000
ASUS45 KGGW 220215
RWRGGW
HOURLY WEATHER ROUNDUP FOR NORTHEAST MONTANA
NATIONAL WEATHER SERVICE GLASGOW MONTANA
800 PM MDT SUN SEP 21 2014

NOTE: "FAIR" INDICATES FEW OR NO CLOUDS BELOW 12,000 FEET WITH NO
SIGNIFICANT WEATHER AND/OR OBSTRUCTIONS TO VISISBILITY.

NORTHEAST MONTANA


CITY           SKY/WX    TMP DP  RH WIND       PRES   REMARKS
GLASGOW        CLEAR     60  38  43 E10       30.10F
PLENTYWOOD       N/A     64  30  27 SE3         N/A
WOLF POINT     CLEAR     59  41  51 NE5       30.13S
JORDAN           N/A     61  44  53 E5        30.13R
WINNETT          N/A     68  43  40 SE5         N/A
SIDNEY         CLEAR    N/A N/A N/A CALM      30.17F
GLENDIVE       NOT AVBL
MALTA            N/A     62  46  55 SE7         N/A
SCOBEY           N/A     56  35  45 S5        30.13F
OPHEIM           N/A     57  36  44 CALM      29.99R

FORT PECK REPORTS


CITY           SKY/WX    TMP DP  RH WIND       PRES   REMARKS
FORT PECK        N/A     66  45  46 E9          N/A
THE PINES        N/A     66  41  40 SE3         N/A

SOUTHEAST MONTANA


CITY           SKY/WX    TMP DP  RH WIND       PRES   REMARKS
BILLINGS       PTCLDY    68  42  38 NE5       30.11F
MILES CITY     CLEAR     68  37  32 E7        30.14S
BAKER          CLEAR     51  37  58 SE8       30.21R
LIVINGSTON     PTCLDY    64  46  52 E8        30.13S

CENTRAL MONTANA


CITY           SKY/WX    TMP DP  RH WIND       PRES   REMARKS
HAVRE          CLEAR     66  46  48 SE12      30.03S
LEWISTOWN      CLEAR     62  43  49 SE7       30.12R
GREAT FALLS    PTCLDY    63  47  55 E7        30.03F
CUT BANK       CLEAR     64  41  42 SE8       30.04S
HELENA         PTCLDY    71  47  42 SW6       30.03S
BUTTE          PTCLDY    65  40  39 S16       30.13S
BOZEMAN        MOCLDY    62  47  57 SE8       30.10S

WESTERN MONTANA


CITY           SKY/WX    TMP DP  RH WIND       PRES   REMARKS
MISSOULA       MOCLDY    77  43  29 NE3       29.95S
KALISPELL      NOT AVBL

NORTH DAKOTA


CITY           SKY/WX    TMP DP  RH WIND       PRES   REMARKS
WILLISTON      CLEAR     51  38  60 CALM      30.17S
DICKINSON      CLEAR     57  38  48 E8        30.20S
MINOT          CLEAR     59  42  53 SW6       30.18R
BISMARCK       CLEAR     58  44  60 E3        30.22R

SOUTHERN SASKATCHEWAN


CITY           SKY/WX    TMP DP  RH WIND       PRES   REMARKS
REGINA         CLEAR     59  45  58 S8        30.11F
ESTEVAN        CLEAR     54  43  66 S2        30.16S
SWIFT CURRENT  CLEAR     57  41  54 SE10      30.08S




USA.gov is the U.S. government's official web portal to all federal, state and local government web resources and services.